QPF
0.00 0.00 0.00 0.00 0.00 0.00 0.00 0.00 0.00 0.00 0.00 0.00 0.00 0.00 0.00 0.01 0.01 0.16 0.00 0.00 0.00 0.00 0.00 0.00 0.00 0.00 0.00 0.00 0.00 0.00 0.00 0.00 0.00 0.00 0.00 0.00 0.00 0.00 0.00 0.00 0.00 0.00 0.00 0.00 0.00 0.00 0.00 0.00 0.00
0.00 0.00 0.00 0.00 0.00 0.00 0.00 0.00 0.00 0.00 0.00 0.00 0.00 0.00 0.00 0.00 0.00 0.00 0.00 0.00 0.00 0.00 0.00 0.00 0.00 0.00 0.00 0.00 0.00 0.00 0.00 0.00 0.00 0.00 0.00 0.00 0.00 0.00 0.00 0.00 0.00 0.00 0.00 0.00 0.00 0.00 0.00 0.00 0.00
0.00 0.00 0.00 0.00 0.00 0.00 0.00 0.00 0.00 0.00 0.00 0.00 0.00 0.00 0.00 0.01 0.00 0.00 0.00 0.00 0.00 0.00 0.00 0.00 0.00 0.00 0.00 0.00 0.00 0.00 0.00 0.00 0.00 0.00 0.00 0.00 0.00 0.00 0.00 0.00 0.00 0.00 0.00 0.00 0.00 0.00 0.00 0.00 0.00
0.00 0.00 0.00 0.00 0.00 0.00 0.00 0.00 0.00 0.00 0.00 0.00 0.00 0.00 0.01 0.01 0.00 0.00 0.00 0.00 0.00 0.00 0.00 0.00 0.00 0.00 0.00 0.00 0.00 0.00 0.00 0.00 0.00 0.00 0.00 0.00 0.00 0.00 0.00 0.00 0.00 0.00 0.00 0.00 0.00 0.00 0.00 0.00 0.00
0.00 0.00 0.00 0.00 0.00 0.00 0.00 0.00 0.00 0.00 0.00 0.02 0.00 0.01 0.01 0.01 0.00 0.00 0.00 0.00 0.00 0.00 0.00 0.00 0.00 0.00 0.00 0.00 0.00 0.00 0.00 0.00 0.00 0.00 0.00 0.00 0.00 0.00 0.00 0.00 0.00 0.00 0.00 0.00 0.00 0.00 0.00 0.00 0.00
0.00 0.00 0.00 0.00 0.00 0.00 0.00 0.00 0.00 0.00 0.00 0.07 0.02 0.00 0.02 0.01 0.00 0.00 0.00 0.00 0.00 0.00 0.00 0.00 0.00 0.00 0.00 0.00 0.00 0.00 0.00 0.00 0.00 0.00 0.00 0.00 0.00 0.00 0.00 0.00 0.00 0.00 0.00 0.00 0.00 0.00 0.00 0.00 0.00
0.00 0.00 0.00 0.00 0.00 0.00 0.00 0.00 0.00 0.00 0.00 0.01 0.04 0.00 0.00 0.01 0.01 0.00 0.00 0.00 0.00 0.00 0.00 0.00 0.00 0.00 0.00 0.00 0.00 0.00 0.00 0.00 0.00 0.00 0.00 0.00 0.00 0.00 0.00 0.00 0.00 0.00 0.00 0.00 0.00 0.00 0.00 0.00 0.00
0.00 0.00 0.00 0.00 0.00 0.00 0.00 0.00 0.00 0.00 0.00 0.00 0.00 0.00 0.01 0.00 0.01 0.01 0.00 0.00 0.00 0.00 0.00 0.00 0.00 0.00 0.00 0.00 0.00 0.00 0.00 0.00 0.00 0.00 0.00 0.00 0.00 0.00 0.00 0.00 0.00 0.00 0.00 0.00 0.00 0.00 0.00 0.00 0.00
0.00 0.00 0.00 0.00 0.00 0.00 0.00 0.00 0.00 0.00 0.00 0.00 0.00 0.00 0.00 0.01 0.02 0.05 0.02 0.00 0.00 0.00 0.00 0.00 0.00 0.00 0.00 0.00 0.00 0.00 0.00 0.00 0.00 0.00 0.00 0.00 0.00 0.00 0.00 0.00 0.00 0.00 0.00 0.00 0.00 0.00 0.00 0.00 0.00
0.00 0.00 0.00 0.00 0.00 0.00 0.00 0.00 0.00 0.00 0.00 0.00 0.00 0.00 0.00 0.00 0.02 0.06 0.09 0.02 0.01 0.03 0.03 0.03 0.00 0.00 0.00 0.00 0.00 0.00 0.00 0.00 0.00 0.00 0.00 0.00 0.00 0.00 0.00 0.00 0.00 0.00 0.00 0.00 0.00 0.00 0.00 0.00 0.00
0.00 0.00 0.00 0.00 0.00 0.00 0.00 0.00 0.00 0.00 0.00 0.00 0.00 0.00 0.00 0.00 0.00 0.01 0.05 0.03 0.02 0.02 0.04 0.04 0.06 0.05 0.02 0.00 0.00 0.00 0.00 0.00 0.00 0.00 0.00 0.00 0.00 0.00 0.00 0.00 0.00 0.00 0.00 0.00 0.00 0.00 0.00 0.00 0.00
0.00 0.00 0.00 0.00 0.00 0.00 0.00 0.00 0.00 0.00 0.00 0.00 0.00 0.00 0.00 0.00 0.00 0.00 0.00 0.02 0.03 0.00 0.00 0.01 0.03 0.07 0.07 0.03 0.01 0.00 0.00 0.00 0.00 0.00 0.00 0.00 0.00 0.00 0.00 0.00 0.00 0.00 0.00 0.00 0.00 0.00 0.00 0.00 0.00
0.00 0.00 0.00 0.00 0.00 0.00 0.00 0.00 0.00 0.00 0.00 0.00 0.00 0.00 0.00 0.00 0.00 0.00 0.00 0.00 0.00 0.00 0.01 0.01 0.00 0.02 0.06 0.07 0.09 0.02 0.00 0.00 0.00 0.00 0.00 0.00 0.00 0.00 0.00 0.00 0.00 0.00 0.00 0.00 0.00 0.00 0.00 0.00 0.00
0.00 0.00 0.00 0.00 0.00 0.00 0.00 0.00 0.00 0.00 0.00 0.00 0.00 0.00 0.00 0.00 0.00 0.00 0.00 0.00 0.00 0.00 0.00 0.01 0.03 0.04 0.02 0.09 0.14 0.13 0.06 0.00 0.00 0.00 0.00 0.00 0.00 0.00 0.00 0.00 0.00 0.00 0.00 0.00 0.00 0.00 0.00 0.00 0.00
0.00 0.00 0.00 0.00 0.00 0.00 0.00 0.00 0.00 0.00 0.00 0.00 0.00 0.00 0.00 0.00 0.00 0.00 0.00 0.00 0.00 0.00 0.00 0.00 0.00 0.03 0.06 0.10 0.16 0.16 0.18 0.09 0.04 0.00 0.00 0.00 0.00 0.00 0.00 0.00 0.00 0.00 0.00 0.00 0.00 0.00 0.00 0.00 0.00
0.00 0.00 0.00 0.00 0.00 0.00 0.00 0.00 0.00 0.00 0.00 0.00 0.00 0.00 0.00 0.00 0.00 0.00 0.00 0.00 0.00 0.00 0.00 0.00 0.00 0.00 0.00 0.03 0.08 0.13 0.15 0.21 0.15 0.07 0.01 0.00 0.00 0.00 0.00 0.00 0.00 0.00 0.00 0.00 0.00 0.00 0.00 0.00 0.00
0.00 0.00 0.00 0.00 0.00 0.00 0.00 0.00 0.00 0.00 0.00 0.00 0.00 0.00 0.00 0.00 0.00 0.00 0.00 0.00 0.00 0.00 0.00 0.00 0.00 0.00 0.00 0.00 0.04 0.07 0.13 0.23 0.22 0.27 0.12 0.02 0.00 0.00 0.00 0.00 0.00 0.00 0.00 0.00 0.00 0.00 0.00 0.00 0.00
0.00 0.00 0.00 0.00 0.00 0.00 0.00 0.00 0.00 0.00 0.00 0.00 0.00 0.00 0.00 0.00 0.00 0.00 0.00 0.00 0.00 0.00 0.00 0.00 0.00 0.00 0.00 0.00 0.00 0.00 0.01 0.07 0.19 0.26 0.24 0.13 0.02 0.00 0.00 0.00 0.00 0.00 0.00 0.00 0.00 0.00 0.00 0.00 0.00
0.00 0.00 0.00 0.00 0.00 0.00 0.00 0.00 0.00 0.00 0.00 0.00 0.00 0.00 0.00 0.00 0.00 0.00 0.00 0.00 0.00 0.00 0.00 0.00 0.00 0.00 0.00 0.00 0.00 0.00 0.00 0.00 0.02 0.06 0.28 0.52 0.32 0.07 0.03 0.00 0.00 0.00 0.00 0.00 0.00 0.00 0.00 0.00 0.00
0.00 0.00 0.00 0.00 0.00 0.00 0.00 0.00 0.00 0.00 0.00 0.00 0.00 0.00 0.00 0.00 0.00 0.00 0.00 0.00 0.00 0.00 0.00 0.00 0.00 0.00 0.00 0.00 0.00 0.00 0.00 0.00 0.00 0.02 0.11 0.21 0.31 0.10 0.07 0.02 0.02 0.00 0.00 0.00 0.00 0.00 0.00 0.00 0.00
0.00 0.00 0.00 0.00 0.00 0.00 0.00 0.00 0.00 0.00 0.00 0.00 0.00 0.00 0.00 0.00 0.00 0.00 0.00 0.00 0.00 0.00 0.00 0.00 0.00 0.00 0.00 0.00 0.00 0.00 0.00 0.00 0.00 0.01 0.04 0.12 0.20 0.43 0.32 0.04 0.01 0.02 0.01 0.00 0.00 0.00 0.00 0.00 0.00
0.00 0.00 0.00 0.00 0.00 0.00 0.00 0.00 0.00 0.00 0.00 0.00 0.00 0.00 0.00 0.00 0.00 0.00 0.00 0.00 0.00 0.00 0.00 0.00 0.00 0.00 0.00 0.00 0.00 0.00 0.00 0.00 0.00 0.00 0.00 0.01 0.06 0.20 0.52 0.37 0.07 0.03 0.03 0.01 0.00 0.00 0.00 0.00 0.00
0.00 0.00 0.00 0.00 0.00 0.00 0.00 0.00 0.00 0.00 0.00 0.00 0.00 0.00 0.00 0.00 0.00 0.00 0.00 0.00 0.00 0.00 0.00 0.00 0.00 0.00 0.00 0.00 0.00 0.00 0.00 0.00 0.00 0.00 0.00 0.00 0.02 0.14 0.49 0.66 0.49 0.20 0.11 0.06 0.02 0.00 0.00 0.00 0.00
0.00 0.00 0.00 0.00 0.00 0.00 0.00 0.00 0.00 0.00 0.00 0.00 0.00 0.00 0.00 0.00 0.00 0.00 0.00 0.00 0.00 0.00 0.00 0.00 0.00 0.00 0.00 0.00 0.00 0.00 0.00 0.00 0.00 0.00 0.00 0.00 0.00 0.01 0.07 0.42 0.67 0.60 0.32 0.12 0.06 0.02 0.01 0.00 0.00
0.00 0.00 0.00 0.00 0.00 0.00 0.00 0.00 0.00 0.00 0.00 0.00 0.00 0.00 0.00 0.00 0.00 0.00 0.00 0.00 0.00 0.00 0.00 0.00 0.00 0.00 0.00 0.00 0.00 0.00 0.00 0.00 0.00 0.00 0.00 0.00 0.00 0.00 0.01 0.27 0.58 0.91 1.21 0.91 0.33 0.20 0.07 0.03 0.01
0.00 0.00 0.00 0.00 0.00 0.00 0.00 0.00 0.00 0.00 0.00 0.00 0.00 0.00 0.00 0.00 0.00 0.00 0.00 0.00 0.00 0.00 0.00 0.00 0.00 0.00 0.00 0.00 0.00 0.00 0.00 0.00 0.00 0.00 0.00 0.00 0.00 0.00 0.00 0.02 0.23 0.33 0.41 0.73 0.81 0.72 0.42 0.14 0.08
0.00 0.00 0.00 0.00 0.00 0.00 0.00 0.00 0.00 0.00 0.00 0.00 0.00 0.00 0.00 0.00 0.00 0.00 0.00 0.00 0.00 0.00 0.00 0.00 0.00 0.00 0.00 0.00 0.00 0.00 0.00 0.00 0.00 0.00 0.00 0.00 0.00 0.00 0.00 0.00 0.01 0.07 0.14 0.22 0.41 0.59 0.66 0.23 0.07
0.00 0.00 0.00 0.00 0.00 0.00 0.00 0.00 0.00 0.00 0.00 0.00 0.00 0.00 0.00 0.00 0.00 0.00 0.00 0.00 0.00 0.00 0.00 0.00 0.00 0.00 0.00 0.00 0.00 0.00 0.00 0.00 0.00 0.00 0.00 0.00 0.00 0.00 0.00 0.00 0.00 0.00 0.02 0.06 0.09 0.13 0.25 0.32 0.10
0.00 0.00 0.00 0.00 0.00 0.00 0.00 0.00 0.00 0.00 0.00 0.00 0.00 0.00 0.00 0.00 0.00 0.00 0.00 0.00 0.00 0.00 0.00 0.00 0.00 0.00 0.00 0.00 0.00 0.00 0.00 0.00 0.00 0.00 0.00 0.00 0.00 0.00 0.00 0.00 0.00 0.00 0.00 0.01 0.07 0.16 0.25 0.21 0.15
0.00 0.00 0.00 0.00 0.00 0.00 0.00 0.00 0.00 0.00 0.00 0.00 0.00 0.00 0.00 0.00 0.00 0.00 0.00 0.00 0.00 0.00 0.00 0.00 0.00 0.00 0.00 0.00 0.00 0.00 0.00 0.00 0.00 0.00 0.00 0.00 0.00 0.00 0.00 0.00 0.00 0.00 0.00 0.00 0.00 0.02 0.08 0.31 0.52
MSLP
1012.11 1010.01 1009.17 1008.31 1006.85 1003.90 1004.16 1005.18 1005.04 1004.86 1004.84 1005.90 1006.07 1005.43 1007.57 1008.91 1009.13 1011.77 1011.82 1012.39 1013.05 1014.30 1015.54 1016.17 1016.61 1016.99 1017.51 1017.77 1018.02 1018.18 1018.41 1018.62 1018.78 1018.87 1018.91 1018.94 1018.92 1018.94 1018.99 1019.09 1019.20 1019.26 1019.36 1019.51 1019.66 1019.82 1019.96 1020.20 1020.36
1011.78 1009.93 1008.72 1006.44 1004.94 1004.32 1005.85 1006.00 1005.54 1006.05 1006.09 1006.58 1006.56 1006.52 1008.50 1010.31 1011.12 1012.19 1012.92 1013.30 1013.64 1014.69 1015.43 1016.39 1017.22 1017.44 1018.01 1018.25 1018.46 1018.55 1018.75 1019.04 1019.23 1019.28 1019.36 1019.41 1019.43 1019.44 1019.50 1019.60 1019.63 1019.66 1019.75 1019.86 1020.08 1020.25 1020.40 1020.62 1020.71
1011.39 1009.81 1007.63 1005.07 1004.26 1004.76 1006.86 1006.86 1006.16 1006.51 1006.50 1006.36 1007.42 1009.74 1012.31 1013.95 1012.77 1012.68 1013.54 1013.68 1013.99 1014.66 1015.67 1017.31 1017.69 1017.74 1018.33 1018.68 1018.88 1019.09 1019.20 1019.40 1019.61 1019.68 1019.73 1019.85 1019.89 1019.92 1019.92 1020.00 1020.00 1019.99 1020.18 1020.40 1020.57 1020.70 1020.85 1021.00 1021.12
1009.31 1008.52 1007.47 1005.51 1006.69 1008.18 1008.48 1008.00 1007.09 1007.06 1007.38 1007.58 1008.34 1011.73 1015.22 1016.08 1014.19 1014.01 1014.17 1014.08 1014.54 1014.89 1016.64 1018.05 1018.22 1018.19 1018.52 1018.97 1019.28 1019.52 1019.74 1019.83 1019.97 1020.07 1020.15 1020.21 1020.28 1020.28 1020.33 1020.35 1020.45 1020.54 1020.75 1020.90 1021.03 1021.15 1021.33 1021.46 1021.52
1008.68 1006.62 1006.07 1007.13 1008.80 1010.18 1010.56 1009.68 1008.73 1008.82 1008.84 1009.32 1011.17 1014.54 1016.13 1016.71 1015.52 1014.75 1014.79 1014.94 1015.10 1015.76 1017.35 1018.26 1018.76 1018.78 1018.82 1019.17 1019.59 1019.85 1020.07 1020.26 1020.40 1020.43 1020.57 1020.63 1020.71 1020.71 1020.74 1020.78 1020.91 1021.05 1021.22 1021.34 1021.46 1021.62 1021.81 1021.94 1021.90
1007.70 1006.11 1006.92 1008.25 1010.21 1011.49 1011.76 1011.33 1010.69 1010.99 1011.33 1011.74 1012.34 1014.88 1017.81 1018.68 1017.01 1016.21 1015.46 1015.69 1016.08 1016.79 1017.48 1018.50 1019.27 1019.42 1019.59 1019.70 1019.91 1020.15 1020.30 1020.55 1020.75 1020.86 1020.91 1021.03 1021.09 1021.21 1021.21 1021.25 1021.34 1021.49 1021.61 1021.74 1021.90 1022.02 1022.16 1022.28 1022.20
1007.24 1006.37 1007.33 1009.64 1011.40 1012.18 1012.60 1012.80 1012.37 1012.70 1012.97 1013.66 1014.06 1015.20 1018.06 1018.55 1018.70 1017.02 1016.14 1016.36 1016.68 1017.38 1017.88 1018.44 1018.98 1019.69 1019.95 1020.18 1020.37 1020.46 1020.49 1020.72 1021.02 1021.24 1021.31 1021.40 1021.46 1021.52 1021.67 1021.74 1021.82 1021.90 1021.98 1022.05 1022.18 1022.35 1022.48 1022.55 1022.54
1007.62 1006.51 1008.78 1010.67 1011.97 1013.38 1013.58 1013.68 1014.17 1014.11 1014.93 1015.68 1015.28 1016.96 1018.25 1019.28 1018.96 1017.91 1017.26 1017.26 1017.31 1017.53 1018.04 1018.30 1018.70 1019.15 1019.59 1020.20 1020.71 1020.87 1020.89 1020.91 1021.08 1021.41 1021.63 1021.77 1021.82 1021.83 1021.92 1022.05 1022.14 1022.23 1022.33 1022.45 1022.56 1022.68 1022.78 1022.88 1022.90
1009.01 1008.58 1010.77 1012.65 1013.80 1014.67 1014.08 1014.43 1014.97 1015.85 1016.18 1016.79 1017.57 1018.21 1018.81 1019.06 1018.80 1018.99 1019.20 1019.10 1018.61 1018.32 1018.29 1018.19 1018.44 1018.97 1019.47 1019.75 1020.58 1021.09 1021.27 1021.31 1021.34 1021.43 1021.69 1021.82 1021.23 1021.62 1021.84 1021.84 1022.12 1022.43 1022.58 1022.71 1022.85 1022.94 1023.02 1023.06 1023.11
1008.88 1009.95 1013.21 1014.73 1015.24 1015.75 1016.01 1015.79 1015.93 1016.61 1017.38 1018.01 1018.52 1019.03 1019.19 1019.25 1019.48 1019.61 1020.01 1020.24 1020.22 1020.41 1019.68 1019.17 1018.81 1018.87 1019.27 1019.06 1020.33 1020.40 1020.61 1020.75 1020.75 1020.80 1021.29 1020.87 1020.49 1020.95 1020.94 1021.58 1022.26 1022.54 1022.69 1022.89 1023.02 1023.08 1023.07 1022.90 1022.20
1011.85 1013.34 1015.03 1015.72 1016.41 1016.34 1016.93 1017.40 1017.69 1017.54 1018.65 1019.57 1019.64 1019.76 1019.93 1019.97 1020.10 1020.10 1020.67 1020.94 1021.24 1021.47 1021.26 1021.10 1021.12 1020.64 1019.38 1018.93 1019.44 1019.63 1019.85 1020.00 1020.26 1020.38 1020.71 1020.30 1020.41 1020.68 1020.95 1021.08 1021.79 1021.93 1022.54 1022.36 1022.78 1022.94 1022.46 1021.77 1021.05
1014.55 1015.43 1016.16 1017.00 1017.38 1017.53 1018.15 1018.79 1019.31 1019.85 1020.72 1020.95 1020.79 1020.66 1020.55 1020.53 1020.88 1021.00 1020.96 1021.07 1021.20 1021.51 1021.91 1021.64 1021.45 1021.50 1021.33 1020.08 1019.14 1018.98 1018.93 1019.50 1019.80 1020.03 1020.38 1020.12 1020.33 1020.42 1020.63 1020.41 1020.91 1021.18 1021.24 1021.08 1021.67 1021.58 1021.39 1021.25 1021.20
1016.48 1016.95 1017.59 1018.14 1018.57 1018.91 1019.33 1019.82 1020.45 1021.26 1021.55 1021.76 1021.50 1021.21 1021.24 1021.32 1021.50 1021.73 1021.75 1021.78 1021.84 1021.96 1022.22 1022.05 1021.56 1021.56 1021.93 1021.55 1020.52 1019.48 1019.00 1018.99 1019.27 1019.64 1020.06 1020.01 1019.94 1019.93 1020.29 1020.12 1020.31 1020.36 1020.45 1020.57 1020.88 1020.59 1020.90 1021.18 1021.32
1017.48 1017.69 1018.41 1018.77 1019.04 1019.57 1019.85 1020.63 1020.78 1022.13 1022.22 1022.07 1022.05 1021.73 1021.73 1021.91 1022.24 1022.36 1022.17 1022.17 1022.19 1022.44 1022.57 1022.43 1021.91 1021.88 1021.98 1022.29 1021.34 1020.41 1019.57 1019.44 1019.03 1019.16 1019.56 1020.23 1019.87 1019.67 1019.92 1020.04 1020.17 1020.07 1020.18 1020.26 1020.42 1020.42 1020.39 1020.77 1020.72
1017.98 1018.25 1019.04 1019.51 1019.79 1020.02 1020.37 1020.98 1022.09 1022.62 1022.63 1022.49 1022.38 1022.40 1022.35 1022.59 1022.75 1023.02 1023.05 1022.82 1022.63 1022.97 1023.11 1022.95 1022.44 1022.22 1022.13 1022.30 1022.25 1021.38 1020.34 1019.67 1019.37 1019.16 1019.02 1019.52 1019.99 1019.70 1019.75 1019.69 1019.75 1019.88 1019.96 1020.30 1020.51 1020.64 1020.71 1020.40 1020.42
1017.62 1017.63 1017.70 1020.20 1020.23 1020.62 1020.44 1021.41 1023.07 1023.11 1022.77 1022.88 1022.84 1022.89 1022.99 1023.18 1023.33 1023.49 1023.64 1023.54 1023.39 1023.71 1023.52 1023.43 1023.11 1022.76 1022.56 1021.90 1022.22 1021.86 1020.95 1020.13 1019.75 1019.30 1019.22 1018.90 1019.30 1019.52 1019.45 1019.40 1019.26 1019.39 1019.63 1019.89 1020.38 1020.53 1020.62 1020.69 1020.50
1017.09 1016.67 1018.10 1019.98 1020.48 1020.26 1020.23 1021.72 1023.21 1023.47 1023.24 1023.27 1023.35 1023.50 1023.56 1023.63 1023.98 1024.25 1024.12 1024.20 1023.96 1024.33 1024.07 1023.78 1023.35 1023.14 1022.80 1021.96 1021.62 1021.42 1021.01 1020.16 1019.82 1019.47 1019.20 1018.56 1018.29 1018.68 1019.03 1018.97 1018.88 1019.09 1019.24 1019.38 1019.81 1020.19 1020.30 1020.24 1020.46
1017.03 1017.99 1019.07 1019.62 1021.15 1020.54 1021.05 1022.32 1023.39 1023.62 1023.61 1023.72 1023.96 1024.16 1024.29 1024.27 1024.46 1024.69 1024.83 1024.94 1024.59 1024.80 1024.51 1024.14 1023.65 1023.36 1022.84 1022.19 1021.60 1021.13 1020.79 1020.94 1020.80 1019.71 1019.09 1018.83 1018.39 1018.31 1018.27 1018.46 1018.59 1018.73 1018.79 1018.86 1019.16 1019.61 1019.79 1020.08 1019.90
1018.51 1018.78 1019.95 1021.13 1021.99 1021.12 1021.62 1022.26 1023.13 1023.90 1023.93 1024.17 1024.40 1024.78 1024.88 1024.78 1024.84 1025.06 1025.30 1025.42 1025.30 1025.23 1025.00 1024.57 1024.06 1023.70 1023.12 1022.47 1022.04 1021.36 1020.84 1020.62 1020.72 1019.57 1019.50 1017.66 1018.17 1018.02 1018.21 1017.54 1017.88 1018.40 1018.46 1018.56 1018.67 1019.18 1019.70 1019.56 1019.93
1019.91 1020.08 1020.95 1021.82 1022.41 1021.63 1021.94 1022.38 1023.31 1023.91 1024.35 1024.75 1024.97 1025.15 1025.47 1025.59 1025.45 1025.58 1025.57 1025.60 1025.61 1025.71 1025.59 1025.05 1024.69 1024.17 1023.77 1023.49 1022.72 1022.14 1021.45 1020.49 1020.60 1020.10 1019.78 1018.99 1017.59 1018.04 1017.68 1016.63 1016.99 1017.39 1017.96 1018.36 1018.42 1018.55 1018.88 1019.24 1019.41
1021.95 1021.89 1022.24 1022.11 1022.54 1022.25 1021.92 1021.91 1022.82 1023.92 1024.25 1024.76 1025.21 1025.56 1025.75 1025.91 1025.91 1025.80 1025.74 1025.80 1025.76 1025.84 1025.64 1025.37 1025.20 1024.77 1024.47 1024.23 1023.18 1022.63 1021.44 1020.66 1020.42 1020.76 1020.16 1019.62 1019.70 1019.66 1015.48 1017.30 1016.49 1016.73 1017.40 1017.57 1018.02 1018.25 1018.41 1018.55 1018.81
1023.00 1024.32 1023.89 1023.18 1022.29 1020.89 1022.01 1020.21 1021.88 1023.17 1023.82 1024.73 1025.38 1025.92 1026.16 1026.30 1026.25 1026.14 1026.03 1025.97 1025.80 1026.00 1025.92 1025.82 1025.49 1025.11 1024.95 1024.70 1023.92 1023.47 1022.56 1021.89 1021.48 1021.33 1021.00 1019.82 1018.87 1019.08 1018.60 1016.18 1017.11 1016.55 1017.00 1017.31 1017.32 1017.66 1017.88 1018.30 1018.15
1025.25 1025.41 1024.61 1023.80 1022.45 1022.03 1021.68 1021.16 1021.57 1023.06 1023.39 1024.40 1025.35 1025.95 1026.30 1026.39 1026.54 1026.50 1026.13 1026.02 1025.92 1026.15 1026.10 1026.03 1025.65 1025.33 1025.37 1025.11 1024.72 1024.04 1023.50 1022.98 1022.12 1021.46 1021.22 1020.59 1019.31 1018.53 1018.86 1018.93 1016.82 1016.77 1016.87 1017.49 1017.38 1016.97 1017.16 1017.42 1017.62
1026.35 1025.55 1024.93 1024.21 1023.14 1022.10 1021.87 1022.38 1021.13 1022.42 1023.96 1024.54 1025.14 1025.74 1026.08 1026.18 1026.33 1026.42 1026.26 1026.04 1026.03 1026.12 1026.25 1026.20 1025.86 1025.54 1025.51 1025.40 1025.13 1024.69 1024.21 1023.60 1022.77 1021.98 1021.22 1020.89 1020.23 1019.09 1018.51 1018.58 1018.84 1018.32 1016.90 1017.43 1017.10 1016.90 1016.64 1016.71 1016.95
1025.98 1025.60 1024.59 1023.83 1023.28 1022.23 1023.20 1023.34 1023.29 1024.29 1024.80 1025.31 1025.66 1026.01 1026.02 1026.17 1026.24 1026.38 1026.15 1025.92 1026.08 1026.31 1026.36 1026.24 1025.97 1025.69 1025.71 1025.58 1025.29 1024.95 1024.53 1023.83 1023.29 1022.72 1022.10 1021.55 1020.96 1020.12 1019.23 1019.10 1019.20 1018.83 1018.28 1015.84 1017.18 1016.45 1016.77 1016.66 1016.41
1026.87 1026.35 1026.06 1025.13 1023.28 1022.68 1023.54 1022.87 1024.05 1024.76 1025.19 1025.51 1025.84 1025.71 1026.04 1026.28 1026.57 1026.63 1026.33 1026.10 1026.20 1026.38 1026.43 1026.51 1026.23 1025.82 1025.80 1025.78 1025.54 1025.14 1024.79 1024.25 1023.72 1023.28 1022.78 1022.14 1021.59 1020.72 1019.86 1019.45 1019.07 1018.94 1018.71 1018.06 1016.89 1016.36 1016.52 1015.73 1016.26
1027.49 1027.51 1028.27 1027.36 1026.43 1025.10 1022.51 1023.55 1024.81 1024.87 1025.21 1025.62 1025.88 1026.19 1026.37 1026.60 1026.62 1026.49 1026.47 1026.36 1026.54 1026.47 1026.48 1026.63 1026.45 1026.08 1025.95 1025.94 1025.69 1025.36 1025.02 1024.63 1024.16 1023.61 1023.03 1022.45 1022.04 1021.28 1020.40 1019.91 1019.11 1018.96 1018.67 1018.24 1017.61 1016.45 1016.49 1015.05 1015.74
1028.71 1029.48 1029.11 1029.12 1027.90 1026.04 1023.43 1022.98 1023.13 1024.52 1025.21 1025.73 1025.99 1026.27 1026.49 1026.68 1026.68 1026.63 1026.54 1026.61 1026.77 1026.48 1026.48 1026.62 1026.54 1026.23 1026.06 1025.96 1025.79 1025.51 1025.26 1024.86 1024.43 1023.92 1023.35 1022.74 1022.27 1021.57 1021.06 1020.32 1019.59 1018.83 1018.37 1018.15 1017.85 1018.13 1017.11 1015.57 1015.29
1029.77 1029.87 1030.51 1030.34 1029.54 1027.70 1025.12 1022.85 1023.36 1024.61 1025.58 1026.04 1026.27 1026.61 1026.68 1026.82 1026.84 1026.67 1026.58 1026.58 1026.52 1026.44 1026.41 1026.47 1026.50 1026.42 1026.21 1025.98 1025.73 1025.62 1025.38 1025.03 1024.53 1024.03 1023.56 1023.10 1022.53 1021.79 1021.16 1020.63 1020.30 1019.59 1018.86 1018.50 1018.62 1018.31 1017.46 1017.11 1015.48
1030.39 1030.55 1031.04 1031.35 1030.99 1029.20 1027.37 1024.84 1024.56 1025.34 1025.99 1026.32 1026.49 1026.62 1026.85 1026.84 1026.78 1026.68 1026.62 1026.57 1026.44 1026.25 1026.25 1026.34 1026.44 1026.41 1026.25 1025.95 1025.76 1025.59 1025.38 1025.10 1024.69 1024.19 1023.66 1023.18 1022.68 1022.19 1021.35 1020.74 1020.59 1020.15 1019.64 1019.16 1019.00 1018.71 1018.26 1017.84 1016.86
Thickness
5758 5778 5788 5785 5768 5797 5773 5765 5790 5783 5790 5801 5807 5807 5782 5778 5768 5716 5781 5781 5778 5767 5756 5749 5746 5742 5735 5731 5725 5721 5717 5715 5713 5711 5710 5710 5710 5710 5709 5708 5707 5708 5708 5708 5708 5707 5708 5705 5703
5759 5777 5782 5790 5775 5763 5744 5771 5772 5779 5793 5802 5806 5804 5784 5762 5778 5768 5767 5775 5772 5763 5756 5748 5741 5738 5732 5728 5723 5719 5716 5713 5711 5709 5708 5707 5707 5707 5707 5706 5707 5707 5707 5707 5707 5707 5706 5704 5704
5760 5776 5772 5785 5791 5759 5734 5764 5778 5785 5799 5802 5790 5783 5756 5738 5767 5771 5773 5774 5770 5764 5755 5743 5739 5737 5731 5726 5721 5716 5714 5711 5709 5708 5706 5706 5706 5705 5705 5706 5706 5707 5707 5705 5705 5705 5705 5704 5703
5766 5771 5775 5767 5736 5734 5739 5758 5780 5781 5791 5799 5791 5754 5739 5742 5759 5767 5770 5770 5765 5762 5748 5739 5736 5735 5730 5725 5720 5715 5710 5708 5707 5705 5705 5704 5704 5705 5704 5705 5705 5705 5704 5704 5704 5704 5703 5702 5702
5768 5777 5756 5737 5724 5727 5736 5753 5766 5761 5771 5768 5767 5728 5725 5736 5756 5765 5764 5763 5760 5754 5742 5735 5733 5732 5730 5725 5719 5715 5710 5706 5704 5703 5703 5703 5702 5703 5704 5704 5703 5702 5702 5702 5702 5702 5701 5700 5700
5751 5774 5735 5718 5713 5719 5727 5740 5747 5746 5748 5750 5751 5734 5712 5721 5739 5750 5760 5756 5752 5746 5739 5732 5727 5726 5724 5722 5719 5715 5711 5706 5703 5701 5702 5702 5702 5700 5701 5702 5702 5701 5700 5700 5701 5701 5700 5699 5699
5750 5757 5736 5715 5705 5707 5717 5732 5729 5730 5732 5728 5744 5728 5715 5718 5724 5743 5752 5750 5746 5740 5735 5730 5726 5722 5720 5718 5715 5713 5712 5708 5704 5700 5700 5700 5700 5701 5699 5699 5699 5699 5699 5699 5699 5699 5699 5698 5698
5757 5765 5721 5714 5700 5691 5716 5721 5723 5721 5713 5727 5735 5707 5703 5709 5721 5732 5739 5739 5739 5736 5732 5729 5725 5722 5719 5715 5712 5710 5709 5708 5706 5702 5699 5697 5698 5699 5700 5699 5697 5697 5697 5698 5698 5698 5697 5697 5697
5754 5730 5699 5695 5689 5689 5717 5710 5719 5719 5711 5712 5711 5707 5710 5715 5720 5718 5714 5718 5724 5727 5728 5728 5727 5722 5718 5716 5711 5708 5706 5705 5704 5703 5701 5699 5700 5699 5699 5700 5699 5697 5696 5695 5695 5695 5695 5695 5695
5740 5717 5689 5695 5694 5688 5696 5703 5707 5702 5697 5695 5697 5702 5707 5710 5708 5707 5704 5700 5703 5704 5714 5718 5721 5721 5718 5720 5711 5710 5708 5706 5706 5704 5701 5704 5706 5702 5703 5700 5698 5696 5696 5694 5694 5694 5694 5696 5699
5714 5688 5688 5689 5690 5696 5690 5687 5694 5694 5679 5680 5681 5688 5693 5696 5696 5699 5695 5694 5693 5694 5699 5703 5705 5709 5715 5718 5715 5714 5712 5711 5708 5706 5703 5706 5706 5704 5701 5702 5697 5697 5695 5695 5694 5693 5695 5700 5705
5680 5686 5684 5680 5684 5684 5677 5680 5673 5673 5667 5674 5679 5684 5685 5684 5683 5684 5688 5690 5690 5690 5689 5694 5696 5697 5699 5708 5714 5716 5716 5712 5710 5708 5705 5706 5704 5704 5703 5704 5701 5700 5701 5703 5699 5700 5702 5703 5703
5669 5670 5673 5673 5673 5672 5671 5664 5662 5658 5665 5668 5672 5675 5674 5675 5675 5675 5677 5679 5681 5680 5681 5685 5689 5690 5690 5693 5700 5708 5713 5713 5712 5709 5706 5705 5705 5705 5703 5705 5703 5703 5703 5703 5702 5705 5703 5701 5700
5671 5671 5668 5669 5669 5668 5662 5658 5663 5652 5658 5659 5660 5664 5667 5667 5665 5665 5667 5668 5670 5670 5672 5676 5681 5683 5682 5683 5688 5695 5700 5705 5710 5710 5707 5702 5704 5704 5702 5702 5702 5704 5703 5702 5702 5703 5704 5702 5702
5668 5658 5658 5658 5660 5658 5661 5648 5640 5647 5650 5649 5652 5652 5654 5654 5656 5653 5655 5658 5662 5659 5660 5663 5668 5673 5675 5676 5677 5683 5689 5693 5702 5705 5708 5704 5701 5702 5701 5701 5701 5701 5702 5699 5698 5698 5698 5701 5702
5666 5671 5667 5648 5654 5653 5656 5635 5631 5641 5643 5640 5642 5643 5643 5643 5643 5644 5644 5645 5649 5647 5649 5651 5655 5661 5663 5670 5670 5674 5680 5687 5689 5696 5700 5704 5702 5701 5701 5700 5701 5701 5699 5698 5696 5695 5695 5695 5697
5672 5670 5661 5646 5654 5655 5656 5633 5630 5635 5636 5633 5633 5633 5633 5632 5631 5630 5633 5633 5636 5633 5636 5640 5644 5649 5654 5661 5664 5668 5674 5680 5682 5687 5691 5699 5704 5702 5700 5701 5700 5698 5698 5698 5695 5694 5694 5694 5693
5660 5654 5651 5650 5639 5651 5641 5627 5625 5628 5627 5625 5623 5621 5620 5620 5619 5619 5619 5619 5623 5621 5624 5627 5632 5636 5642 5649 5655 5661 5666 5668 5671 5682 5687 5685 5690 5694 5699 5699 5699 5697 5697 5698 5697 5694 5694 5692 5694
5659 5656 5641 5634 5630 5639 5631 5626 5621 5617 5617 5613 5612 5609 5608 5609 5611 5610 5607 5606 5607 5606 5608 5613 5617 5621 5627 5635 5639 5648 5654 5660 5662 5674 5670 5665 5667 5682 5686 5697 5697 5694 5696 5696 5697 5693 5688 5690 5690
5649 5645 5633 5629 5625 5633 5625 5618 5614 5611 5606 5603 5600 5597 5594 5593 5595 5594 5594 5592 5591 5590 5590 5595 5598 5604 5609 5612 5619 5627 5635 5648 5649 5657 5662 5665 5668 5677 5684 5698 5697 5695 5693 5692 5694 5694 5689 5688 5689
5626 5628 5621 5623 5618 5623 5621 5614 5609 5604 5603 5598 5593 5589 5585 5580 5579 5580 5580 5579 5578 5575 5576 5578 5578 5582 5587 5591 5601 5607 5619 5629 5637 5640 5647 5652 5658 5657 5668 5670 5690 5693 5690 5692 5690 5690 5688 5685 5686
5620 5603 5604 5608 5615 5628 5616 5625 5609 5602 5596 5589 5582 5575 5572 5569 5567 5565 5562 5561 5562 5560 5560 5559 5561 5563 5565 5569 5578 5584 5593 5601 5611 5619 5626 5639 5653 5647 5645 5662 5663 5679 5680 5683 5689 5688 5687 5682 5682
5595 5592 5597 5602 5613 5610 5612 5614 5593 5596 5588 5579 5572 5565 5560 5556 5552 5549 5550 5549 5547 5544 5543 5542 5543 5545 5544 5547 5552 5562 5568 5576 5588 5600 5608 5620 5634 5644 5635 5633 5653 5656 5668 5664 5673 5682 5684 5683 5682
5585 5590 5593 5596 5602 5595 5604 5592 5604 5593 5575 5570 5566 5559 5553 5550 5545 5541 5538 5536 5532 5529 5526 5525 5526 5526 5524 5525 5530 5535 5543 5552 5564 5576 5587 5598 5611 5624 5629 5628 5626 5636 5649 5653 5657 5667 5675 5677 5678
5590 5586 5585 5586 5584 5594 5583 5575 5575 5566 5564 5557 5551 5546 5545 5542 5538 5531 5528 5526 5521 5514 5509 5506 5507 5509 5508 5506 5508 5514 5521 5531 5539 5550 5562 5572 5583 5597 5610 5613 5613 5618 5620 5638 5640 5658 5656 5661 5668
5574 5579 5570 5562 5593 5596 5574 5576 5559 5561 5557 5553 5547 5546 5540 5533 5525 5520 5519 5516 5510 5504 5498 5489 5487 5488 5490 5490 5490 5493 5499 5508 5516 5524 5535 5547 5558 5571 5584 5595 5598 5603 5604 5617 5629 5643 5639 5656 5651
5568 5563 5553 5546 5553 5556 5593 5567 5550 5554 5546 5541 5536 5530 5525 5521 5517 5515 5511 5506 5498 5492 5484 5475 5473 5476 5478 5478 5480 5481 5483 5487 5495 5503 5512 5522 5533 5546 5560 5569 5581 5586 5590 5599 5611 5627 5632 5639 5642
5557 5545 5542 5528 5528 5532 5575 5568 5557 5543 5534 5530 5526 5522 5518 5513 5510 5506 5503 5496 5488 5482 5473 5467 5466 5468 5470 5471 5472 5473 5474 5475 5479 5486 5493 5502 5509 5522 5534 5547 5558 5568 5574 5586 5595 5600 5607 5618 5628
5541 5537 5526 5526 5525 5528 5542 5567 5559 5538 5526 5520 5517 5512 5509 5504 5500 5499 5495 5489 5483 5476 5468 5463 5462 5461 5462 5463 5465 5465 5466 5467 5471 5474 5479 5485 5492 5502 5513 5523 5532 5544 5553 5563 5570 5581 5592 5596 5610
5535 5530 5525 5513 5502 5515 5520 5536 5544 5530 5519 5513 5508 5506 5501 5498 5494 5492 5487 5481 5477 5472 5465 5459 5455 5454 5454 5456 5456 5457 5458 5460 5462 5465 5469 5473 5479 5484 5494 5504 5511 5520 5529 5539 5546 5559 5564 5576 5588